Regional Weather Roundup
Issued by NWS

Home | Current Version | Previous Version | Graphics & Text | Print | Product List | Glossary On
Versions: 1 2 3 4 5 6 7 8 9 10 11 12 13 14 15 16 17 18 19 20 21 22 23 24 25 26 27 28 29 30 31 32 33 34 35 36 37 38 39 40 41 42 43 44 45 46 47 48 49 50
000
ASUS43 KBIS 201010
RWRND

NORTH DAKOTA REGIONAL WEATHER ROUNDUP
NATIONAL WEATHER SERVICE BISMARCK ND
500 AM CDT WED SEP 20 2017

NOTE: "FAIR" INDICATES FEW OR NO CLOUDS BELOW 12,000 FEET WITH NO
SIGNIFICANT WEATHER AND/OR OBSTRUCTIONS TO VISIBILITY.


NDZ001>003-009>011-017-201100-
NORTHWEST NORTH DAKOTA

CITY           SKY/WX    TMP DP  RH WIND       PRES   REMARKS
WILLISTON      CLEAR     41  37  86 SW6       29.57F
MINOT          CLEAR     48  43  82 SW10      29.54S
MINOT AFB      CLEAR     46  42  88 SW9       29.53R
$$

NDZ018>021-031>035-040>046-201100-
SOUTHWEST NORTH DAKOTA

CITY           SKY/WX    TMP DP  RH WIND       PRES   REMARKS
BISMARCK       CLEAR     48  42  80 W10       29.66R
DICKINSON      CLEAR     41  38  89 SW8       29.63S
GARRISON         N/A     43  40  89 W10       29.59R
HETTINGER ARPT CLEAR     39  36  89 W6        29.70R
$$

NDZ004>008-012>016-024-026-027-054-201100-
NORTHEAST NORTH DAKOTA

CITY           SKY/WX    TMP DP  RH WIND       PRES   REMARKS
GRAND FORKS    CLOUDY    58  54  86 W12       29.49R
GRND FRKS AFB  CLOUDY    56  52  88 W10       29.50R
DEVILS LAKE    MOCLDY    50  48  93 W12       29.55R
$$

NDZ022-023-025-028>030-036>039-047>053-201100-
SOUTHEAST NORTH DAKOTA

CITY           SKY/WX    TMP DP  RH WIND       PRES   REMARKS
FARGO          CLOUDY    57  52  83 W12       29.55R
JAMESTOWN      CLOUDY    50  45  83 W13       29.59R
$$





USA.gov is the U.S. government's official web portal to all federal, state and local government web resources and services.